Flag Weather past 2 weeks in Formosa, Formosa, Argentina

Now
70 °F

Clear.


Feels Like: 70 °F
Forecast: 66 / 93 °F
Wind: 7 mph from East

Location: Formosa Aerodrome

Current Time: Nov 24, 2014 at 2:25:48 AM

Latest Report: Nov 24, 2014 at 2:00 AM


Visibility: 10 mi

Pressure: 29.74 "Hg

Humidity: 88%

Dew point: 66 °F

Location of FormosaLocation

Historic Weather in Formosa — Graph

°F

Formosa temperature yesterday

Maximum temperature yesterday: 84 °F (at 1:00 PM)
Minimum temperature yesterday: 64 °F (at 5:00 AM)
Average temperature yesterday: 76 °F

Past Weeks' High & Low Weather Summary

 TemperatureHumidityPressure
High93 °F (Nov 10, 2:00 PM)100% (Nov 9, 3:00 AM)30.09 "Hg (Nov 9, 3:00 AM)
Low59 °F (Nov 15, 4:00 AM)32% (Nov 17, 2:00 PM)29.59 "Hg (Nov 11, 5:00 PM)
Average76 °F70%29.86 "Hg
* Reported Nov 9 2:00 AM — Nov 24 1:00 AM, Formosa, Weather by CustomWeather, © 2014

Note: Actual official high and low records may vary slightly from our data, if they occured in-between our weather recording intervals... More about our weather records

Advertising

Formosa weather history for previous 24 hours

 ConditionsComfort  
Time TempWeatherWind HumidityBarometerVisibility
1:00 AM
Nov 24
70 °FClear.2 mph88%29.77 "Hg10 mi
12:00 AM72 °FClear.6 mph78%29.80 "Hg10 mi
11:00 PM
Nov 23
73 °FClear.7 mph69%29.80 "Hg10 mi
10:00 PM72 °FClear.7 mph88%29.80 "Hg10 mi
9:00 PM75 °FClear.7 mph69%29.80 "Hg10 mi
8:00 PM77 °FClear.6 mph69%29.80 "Hg10 mi
7:00 PM82 °FClear.2 mph48%29.80 "Hg10 mi
6:00 PM84 °FSunny.5 mph45%29.80 "Hg10 mi
5:00 PM84 °FSunny.3 mph45%29.80 "Hg10 mi
4:00 PM84 °FSunny.9 mph45%29.83 "Hg10 mi
3:00 PM84 °FSunny.10 mph43%29.86 "Hg10 mi
2:00 PM84 °FSunny.7 mph45%29.89 "Hg10 mi
1:00 PM84 °FSunny.16 mph45%29.92 "Hg10 mi
12:00 PM77 °FSunny.14 mph57%29.92 "Hg10 mi
11:00 AM81 °FSunny.7 mph48%29.95 "Hg10 mi
10:00 AM77 °FSunny.8 mph74%29.98 "Hg10 mi
6:00 AM66 °FSunny.7 mph88%29.92 "Hg10 mi
5:00 AM64 °FSunny.5 mph94%29.92 "Hg10 mi
4:00 AM66 °FClear.5 mph88%29.92 "Hg10 mi
3:00 AM68 °FClear.5 mph83%29.92 "Hg10 mi
2:00 AM70 °FClear.3 mph78%29.92 "Hg10 mi
Weather by CustomWeather, © 2014

See weather overviewHow to use our weather pages